Orbital Elements at Epoch 2459200.5 (2020-Dec-17.0) TDB
Reference: JPL 18 (heliocentric ecliptic J2000)
Element | Value | Uncertainty (1-sigma) | Units |
e | .1949164044471573 | 3.9105e-08 | |
a | 2.571066387885287 | 1.3714e-08 | au |
q | 2.069923371963747 | 9.8597e-08 | au |
i | 4.478443543302746 | 5.9281e-06 | deg |
node | 97.3349076726016 | 6.0503e-05 | deg |
peri | 289.6393550413221 | 6.2946e-05 | deg |
M | 44.04518033802287 | 1.856e-05 | deg |
tp | 2459016.268344467545 (2020-Jun-15.76834447) | 7.7038e-05 | TDB |
period | 1505.803710705408 4.12 | 1.2048e-05 3.299e-08 | d yr |
n | .2390749852989501 | 1.9129e-09 | deg/d |
Q | 3.072209403806827 | 1.6387e-08 | au |
|
| | Orbit Determination Parameters
Additional Information
|